999  
ASUS44 KEWX 272111  
RWRTX  
SOUTH TEXAS REGIONAL WEATHER ROUNDUP  
NATIONAL WEATHER SERVICE AUSTIN/SAN ANTONIO TX  
400 PM CDT SAT AUG 27 2016  
 
NOTE: "FAIR" INDICATED FEW OR NO CLOUDS BELOW 12,000 FEET WITH NO  
SIGNIFICANT WEATHER AND/OR S TO VISIBILITY
.  
 
* - THESE STATIONS ARE NOT NWS OR FAA STATIONS...AND ARE NOT SUBJECT  
TO NWS AND FAA QUALITY CONTROL.
 
 
TXZ171-172-183>190-272200-  
TEXAS HILL COUNTRY AND EDWARDS PLATEAU  
 
CITY SKY/WX TMP DP RH WIND PRES REMARKS
 
JUNCTION SUNNY 94 62 34 NE10 29.95F HX 94  
*LLANO MOSUNNY 90 72 55 E5 29.97F HX 96  
BURNET MOSUNNY 89 68 49 SE7 29.97F HX 93  
*HORSESHOE BAY MOSUNNY 89 67 48 CALM 29.95F HX 91  
*KERRVILLE MOSUNNY 92 70 49 E6 29.96F HX 97  
*FREDERICKSBRG MOSUNNY 88 65 46 SE7 29.97F HX 90  
*ROCKSPRINGS MOSUNNY 82 61 47 N8 30.02F  
*BOERNE STAGE PTSUNNY 86 66 51 SE5 29.96F  
*CASTROVILLE MOSUNNY 92 65 40 S8 29.93F HX 94  
HONDO SUNNY 91 69 48 SE5 29.93F HX 96  
*UVALDE MOSUNNY 90 69 51 SE8 29.93F HX 94  
DEL RIO PTSUNNY 92 67 43 S3 29.90F HX 95  
LAUGHLIN AFB MOSUNNY 91 69 47 S9 29.91F HX 95  
CARRIZO SPRGS MOSUNNY 91 68 46 SE7 29.90F HX 95  
*EAGLE PASS PTCLDY 91 68 46 E8 29.91F HX 95  

 
 
TXZ173-191>194-202-209-217>225-228-272200-  
CENTRAL AND SOUTH CENTRAL TEXAS  
 
CITY SKY/WX TMP DP RH WIND PRES REMARKS
 
GEORGETOWN NOT AVBL  
AUSTIN/BERGSTM MOSUNNY 90 71 53 E9 29.92F HX 96  
AUSTIN/MABRY MOSUNNY 90 71 53 VRB3 29.94F HX 96  
*AUSTIN/EXEC MOSUNNY 90 72 55 E7 29.94F HX 96  
*LAGO VISTA MOSUNNY 82 74 75 CALM 29.97F  
SAN MARCOS MOSUNNY 91 70 49 E8 29.94F HX 97  
NEW BRAUNFELS MOSUNNY 92 70 48 VRB3 29.91F HX 97  
RANDOLPH AFB MOSUNNY 87 72 60 SE9 29.92F HX 94  
PT SAN ANTONIO MOSUNNY 90 72 55 SE7 29.90F HX 96  
SAN ANTONIO PTSUNNY 90 71 53 SE6 29.93F HX 96  
STINSON FIELD MOSUNNY 93 69 45 VRB3 29.90F HX 98  
*PLEASANTON SUNNY 89 69 52 CALM 29.92F HX 94  
*LA GRANGE MOSUNNY 90 72 54 CALM 29.91F HX 97  
*GIDDINGS MOSUNNY 90 68 49 CALM 29.97F HX 93  
*GONZALES MOSUNNY 89 73 59 CALM 29.91F HX 97  

 
 
TXZ163>164-176>182-195>201-210>213-226-227-235-272200-  
SOUTHEAST TEXAS  
 
CITY SKY/WX TMP DP RH WIND PRES REMARKS
 
COLLEGE STN MOSUNNY 91 72 53 N8 29.92F HX 98  
*BRYAN MOSUNNY 88 72 58 CALM 29.94F HX 94  
*CALDWELL MOSUNNY 90 68 48 E7 29.96F HX 93  
*CROCKETT LGT RAIN 84 82 94 N5 29.97F HX 101  
*BRENHAM MOSUNNY 91 71 53 NE3 29.93F HX 97  
HUNTSVILLE CLOUDY 88 70 55 CALM 29.93F HX 93  
CONROE CLOUDY 86 73 65 NE5 29.93F HX 93  
HOUSTON BUSH PTSUNNY 89 73 59 E9 29.91F HX 97  
HOUSTON HOBBY CLOUDY 88 72 58 NE9 29.90F HX 94  
*HOUSTON SW AP N/A 86 73 64 N7 29.92F HX 92  
PEARLAND CLOUDY 89 74 60 E7 29.92F HX 98  
HOUSTON HOOKS CLOUDY 89 74 60 NE8 29.91F HX 98  
ELLINGTON FLD NOT AVBL  
SUGAR LAND CLOUDY 86 71 60 CALM 29.91F HX 91  
*HOUSTON EXEC CLOUDY 86 73 66 CALM 29.92F HX 93  
*CLEVELAND MUN CLOUDY 88 74 63 NE7 29.93F HX 97  
*WHARTON MOSUNNY 88 73 60 N7 29.91F HX 95  
*COLUMBUS NOT AVBL  
*EAGLE LAKE MOCLDY 87 74 64 NE8 29.91F HX 96  

 
 
TXZ214>216-236>238-272200-  
THE UPPER TEXAS COAST  
 
CITY SKY/WX TMP DP RH WIND PRES REMARKS
 
*ORANGE RAIN 74 73 96 N6 29.95F  
PORT ARTHUR LGT RAIN 75 75 100 N10 29.93F  
GALVESTON CLOUDY 86 77 74 N9 29.91F HX 97  
ANGLETON CLOUDY 90 75 61 N9 29.90F HX 100  
*BAY CITY MOSUNNY 87 75 66 N6 29.90F HX 97  
PALACIOS MOSUNNY 90 72 55 NE9 29.89F HX 97  

 
 
TXZ229>234-239>247-272200-  
TEXAS COASTAL BEND AND RIO GRANDE PLAINS  
 
CITY SKY/WX TMP DP RH WIND PRES REMARKS
 
VICTORIA MOSUNNY 91 71 51 NE10 29.90F HX 97  
*BEEVILLE PTSUNNY 91 74 57 E6 29.90F HX 101  
ROCKPORT MOSUNNY 90 75 61 E7 29.89F HX 100  
*PORT ARANSAS MOSUNNY 90 76 62 E10 29.90F HX 101  
*PORT LAVACA MOSUNNY 91 76 61 NE8 29.90F HX 101  
*INGLESIDE MOSUNNY 92 76 58 E12G17 29.88F HX 104  
CORPUS CHRISTI MOSUNNY 94 74 52 E12 29.88F HX 104  
CORPUS NAS NOT AVBL  
*ROBSTOWN MOSUNNY 94 72 47 NE9 29.88F HX 102  
ALICE MOSUNNY 95 69 42 NE5 29.87F HX 100  
KINGSVILLE NAS NOT AVBL  
COTULLA MOSUNNY 96 65 35 NE6 29.90F HX 98  
*FAITH RANCH N/A N/A N/A N/A MISG N/A  
LAREDO MOSUNNY 97 69 40 E12 29.87F HX 103  

 
 
TXZ248>255-272200-  
DEEP SOUTH TEXAS  
 
CITY SKY/WX TMP DP RH WIND PRES REMARKS
 
BROWNSVILLE PTSUNNY 91 72 53 E12 29.88F HX 98  
PORT ISABEL PTSUNNY 91 74 57 E16 29.87F HX 100  
*SOUTH PADRE N/A 86 79 79 NE10 29.89F HX 99  
HARLINGEN MOSUNNY 96 71 44 E16 29.86F HX 103  
*HEBBRONVILLE MOSUNNY 94 65 37 E7 29.90F HX 97  
MCALLEN SUNNY 101 66 31 E10 29.85F HX 105  
*WESLACO PTSUNNY 90 50 25 E12G20 29.85F  
FALFURRIAS MOSUNNY 96 68 39 NE10 29.86F HX 100  
EDINBURG PTSUNNY 99 63 30 E9 29.85F HX 101  
*ZAPATA PTSUNNY 97 61 30 E8 29.85F HX 98  

 
 
TXZ213>215-236>238-242>244-246-247-251-254-255-272200-  
CMAN STATIONS  
 
STATION/POSITION TIME TEMP WIND PRES WAVE
 
AIR SEA DIR/SP/G HT/PER  
(UTC) (F) (DEG/KT/KT) (MB) (FT/S)  
SABINE PASS 2000 83 87 50/ 10/ 11 1015.0  
SEA RIM ST PARK 2100 79 20/ 14/ 18 1013.6  
NORTH JETTY/GLS 2000 83 85 60/ 9/ 12 N/A  
EAGLE POINT 2000 82 86 50/ 9/ 10 1013.6  
MORGANS POINT 2000 85 86 50/ 9/ 13 1013.4  
MISSION/ARANSAS 2000 85 1014.0  
PORT ARANSAS 2100 83 87 80/ 10/ 11 1012.5  
MALAQUITE BEACH 2000 84 87 70/ 11/ 13 1013.4  
BAFFIN BAY 2006 85 90 70/ 15/ 18 1012.8  
PORT ISABEL 2000 84 84 10/ 6/ 8 1012.7  

 
 
GMZ080-GMZ150>470-272200-  
OFFSHORE BUOY REPORTS  
 
STATION/POSITION TIME TEMP WIND PRES WAVE
 
AIR SEA DIR/SP/G HT/PER  
(UTC) (F) (DEG/KT/KT) (MB) (FT/S)  
20 E GALVESTON 2050 82 85 20/ 14/ 16 1012.5 2/ 5  
90 E PT ARANSAS 2050 83 86 20/ 10/ 12 1012.1 3/ 7  
35 NE PT MANSFLD 2050 84 87 50/ 10/ 12 1011.9 2/ 7  
200 E PT ISABEL 2050 85 88 320/ 4/ 6 1010.6 2/ 7  

 
 
 
CLICK HERE TO GO TO PREVIOUS BULLETINS.

The Nexlab TX Page Main Text Page